COSMOS 2251 DEB, 36048

Orbit data source: Space-Track

COSMOS 2251 DEB, 36048 is space debris in LEO originally from a launch on Wed, 16 Jun 1993 UTC launched from the Plesetsk Missile And Space Complex (PKMTR). The debris from Iridium 33, an American commercial communications satellite, has been tracked extensively since its accidental collision with the defunct Russian satellite Cosmos 2251 in 2009. This event, occurring at high speed in low Earth orbit (LEO), generated thousands of pieces of space debris, significantly increasing the risk of further collisions. The Iridium 33 debris cloud has impacted space traffic management and orbital debris mitigation strategies, making it a subject of ongoing study in space situational awareness.

Loading next visibility...
Identifier
36048, 1993-036AXK
Orbit
LEO
Country
Flag of CISCIS
Related business
Manufacturer
Unknown
Mission
Spacecraft
Bus & Motor
Unknown
Mass
Unknown
Launch date (UTC)
1993-06-16 (33 years ago)
Launch vehicle
Unknown
Launch site
Plesetsk Missile And Space Complex (PKMTR)
Object type
Payload
Rocket body
Debris
Shape & HBR
Unknown shape, 0.1 m
Radar Cross Section
Medium (>0.1 m² and <1 m²)

Expand to show TLE details & history
Last TLE update: 14 hours ago

TLE from 14 hours ago
0 COSMOS 2251 DEB
1 36048U 93036AXK 26257.45769561  .00000381  00000-0  13351-3 0  9995
2 36048  74.0570 152.0675 0025873 138.8946  35.7875 14.38203767894654
Epoch: 2026-09-14T10:59Z
TLE epoch observation values (Epoch: 2026-09-14T10:59:04.900Z)
Latitude
4.86487°
Longitude
172.47359°
Altitude
751.578 km
Speed
7.487 km/s
True Right ascension
22h 02m 43s
True Declination
4° 50' 09"
Sunlit
Object was in full shadow at epoch
Visualization orbit readout
Latitude
Unknown
Longitude
Unknown
Altitude
Unknown
Speed
Unknown
Apparent Right ascension
Unknown
Apparent Declination
Unknown
Sunlit
N/A
Visualization observer readout
Local Sidereal Time
17:31:23
Azimuth
Unknown
Elevation
Unknown
Doppler factor
Unknown
Orbital elements
Apogee altitude
780.533 km
Perigee altitude
743.585 km
Semi-major axis
7,140.196 km
Eccentricity
0.00259
Inclination
74.057°
RAAN
152.0675°
Arg. of periapsis
138.8946°
True anomaly
35.96133°
Mean anomaly
35.7875°
Eccentric anomaly
35.87437°
Mean motion
3.59731 °/min
Orbital period
100.07 mins
BSTAR
0.00013351
Loading maneuver chart data...
Computing Atmospheric mass density...

Documentation

Showing up to 5 results
|